Location: Azul
(36.7830°S, 59.8500°W)
Time: 12:32:57
(UTC-03:00)

DX 1 - Pass Details

Date: 31 October 2021
Orbit: 619 x 629 km, 98.4° (Epoch: 29 November)

Event Time Altitude Azimuth Distance (km) Brightness Sun altitude
Rises 20:34:26 0° 2° (N) 2,906 ? -12.3°
Reaches altitude 10° 20:36:40 10° 357° (N) 2,006 ? -12.7°
Maximum altitude 20:40:55 51° 280° (W) 801 ? -13.4°
Drops below altitude 10° 20:45:14 10° 204° (SSW) 2,029 ? -14.2°
Sets 20:47:30 0° 198° (SSW) 2,943 ? -14.6°
